Wind_Speed
24 22 21 21 18 18 17 16 15 15 17 16 20 18 20 22 22 20 18 20 23 24 25 27 24 23 21 20 18 19 21 20 15 18 19 10 26 22 22 20 16 16 15
13 18 19 17 16 18 20 20 21 22 22 21 21 27 24 23 23 24 24 23 23 24 25 29 29 29 29 27 24 23 27 25 20 20 19 23 28 21 17 21 19 15 17
12 14 17 19 21 23 25 26 28 30 32 31 30 27 27 27 26 25 28 27 28 27 25 26 29 31 29 28 30 31 31 29 28 27 26 25 25 23 24 21 21 19 20
17 18 22 24 26 28 32 36 38 40 41 40 38 35 33 30 28 28 27 27 29 30 29 29 28 28 29 31 31 30 33 34 34 33 32 30 28 25 26 26 23 20 18
21 23 27 31 34 38 42 44 45 45 43 42 42 40 36 35 32 29 29 29 28 30 31 33 36 31 29 30 31 32 32 33 35 37 35 34 33 31 25 23 23 22 15
28 31 36 41 44 45 46 43 41 40 39 37 37 38 36 33 33 31 33 32 29 28 30 30 32 37 33 34 31 28 31 35 34 35 35 36 35 33 28 25 28 28 22
33 37 40 43 44 40 35 34 33 32 31 32 32 31 32 31 27 25 30 34 34 33 35 36 35 34 36 36 36 31 29 30 31 34 37 36 35 35 32 31 29 26 27
41 42 43 41 41 37 38 37 35 35 35 32 32 32 32 31 31 24 27 33 35 34 35 34 34 34 35 36 37 35 33 33 30 30 33 35 38 39 38 34 32 30 31
46 48 48 44 41 40 41 39 37 37 38 37 36 36 36 33 31 29 28 32 35 36 34 33 38 40 39 42 45 41 38 38 37 38 33 33 36 37 37 37 37 35 33
50 48 46 41 39 41 41 41 38 37 38 39 41 41 39 38 33 31 30 33 35 35 35 35 36 39 43 46 45 47 49 46 43 40 38 34 35 35 34 36 36 37 34
48 48 47 43 43 42 41 40 38 39 38 38 38 40 41 39 37 33 32 34 34 36 37 39 41 38 37 39 42 45 45 43 44 44 43 38 35 36 35 34 36 36 36
46 47 45 42 40 41 41 41 40 40 35 36 38 39 39 39 38 35 33 35 32 38 39 37 42 44 39 37 40 42 39 42 42 49 31 35 36 36 35 32 33 33 32
48 48 47 42 40 39 40 40 40 38 36 36 37 38 38 32 28 33 35 32 31 37 40 37 39 44 44 40 40 39 35 34 37 37 38 40 38 36 35 33 31 32 32
35 36 36 38 35 33 32 35 36 34 32 33 35 33 30 27 27 25 26 27 29 33 36 39 38 41 45 43 41 39 36 33 31 39 44 42 41 40 36 37 35 31 28
40 44 41 33 33 32 30 30 32 33 32 33 33 31 32 33 29 31 34 35 34 35 33 34 34 40 43 44 43 40 39 36 34 35 41 42 44 41 36 36 37 36 33
36 33 31 30 31 32 32 35 35 35 35 36 34 32 31 32 31 33 35 38 39 42 41 38 37 38 38 40 40 38 39 38 34 32 33 31 38 39 36 35 34 36 35
36 36 36 38 37 39 37 35 33 35 37 37 36 36 34 33 32 31 34 37 42 44 43 43 46 42 38 40 41 42 41 40 36 32 30 31 25 29 33 33 33 33 34
34 34 37 37 38 39 36 35 33 35 34 36 35 36 35 33 32 32 33 38 42 44 45 45 44 42 40 40 41 44 43 41 39 36 33 33 30 27 28 31 32 34 32
30 31 31 35 37 36 37 36 37 38 38 37 35 34 33 33 32 31 34 36 39 41 41 43 44 39 38 38 39 42 42 39 38 33 32 30 31 30 27 27 29 30 31
31 35 38 38 36 37 34 35 36 36 36 36 34 30 30 32 28 28 30 31 34 37 37 38 40 37 34 35 37 40 42 41 39 38 32 29 30 31 27 27 29 33 35
39 41 39 39 41 38 37 37 35 34 33 32 31 29 30 33 32 31 31 32 31 30 31 32 33 33 31 32 35 37 38 39 40 39 36 32 30 31 34 30 30 33 33
45 43 40 38 36 35 35 36 36 32 30 29 27 28 29 31 30 31 30 31 31 31 25 22 25 28 28 31 31 31 35 39 39 38 38 37 37 37 36 35 33 32 31
45 44 40 36 33 33 32 31 30 28 26 25 26 26 26 25 23 24 24 26 28 28 26 26 23 24 26 27 27 29 29 33 35 36 37 37 36 37 38 36 36 34 36
46 47 41 34 31 30 29 27 26 24 23 24 24 23 22 20 19 19 19 20 23 25 26 26 25 25 23 24 25 28 25 35 32 33 35 36 39 39 41 40 39 38 39
47 42 37 32 29 27 25 23 22 22 22 16 20 19 21 24 17 17 16 20 20 20 22 16 18 26 26 25 23 30 31 28 29 31 34 35 36 36 36 36 36 36 35
41 36 32 28 24 23 21 20 18 19 22 20 21 16 17 20 21 21 20 19 18 19 20 20 24 23 23 27 27 26 27 28 29 28 30 32 33 32 36 36 35 34 34
Wind_Direction
252 256 261 269 269 278 281 284 292 300 309 292 274 281 287 278 281 278 279 282 275 264 265 266 256 254 252 254 274 248 252 260 252 204 213 268 266 263 253 272 283 288 304
241 245 258 263 269 280 282 289 295 303 300 294 283 275 281 277 274 280 274 271 274 277 268 260 262 256 253 252 252 252 255 264 257 253 243 232 251 275 267 267 272 261 244
232 241 251 266 276 286 291 293 298 299 298 295 287 277 274 270 274 278 273 273 269 267 267 267 263 261 257 253 249 249 252 259 263 261 262 266 265 267 271 262 259 265 261
250 259 270 277 284 289 292 294 293 294 294 290 288 283 273 268 269 271 276 270 268 267 267 269 268 266 262 260 255 252 254 255 256 260 261 259 264 264 265 270 269 271 281
276 285 289 291 292 293 293 292 290 290 289 289 286 283 279 270 264 263 265 268 265 265 269 275 271 271 273 268 263 258 255 257 258 261 259 259 258 254 251 270 274 261 260
286 292 293 292 290 289 289 290 291 291 290 288 288 287 282 277 273 266 262 260 262 256 261 260 264 260 263 270 270 265 262 259 260 260 261 264 265 264 256 244 247 261 252
291 292 292 293 293 291 289 290 294 296 292 288 285 284 286 286 279 273 268 261 256 251 247 251 254 253 264 252 256 258 258 259 259 261 262 259 255 264 263 261 267 265 265
293 292 290 290 287 282 282 285 289 292 293 293 287 283 282 284 283 269 266 265 260 255 256 251 252 251 248 249 251 250 250 253 253 258 266 266 261 255 261 264 263 261 260
294 292 290 285 281 275 276 279 281 287 285 285 286 286 282 278 279 278 265 261 261 257 249 249 243 245 243 244 247 249 250 249 259 264 259 261 260 253 253 257 257 257 260
290 289 288 291 284 278 278 278 278 282 280 282 282 279 277 276 273 275 268 263 260 260 256 248 247 246 249 253 251 251 251 253 258 255 256 253 256 254 252 252 254 256 257
289 290 291 289 285 283 281 280 281 281 283 284 283 282 277 270 269 266 268 264 261 260 259 251 250 254 253 254 254 254 257 261 259 253 248 249 251 254 252 251 253 253 254
292 291 293 292 286 282 280 279 280 281 279 276 276 276 277 274 264 261 261 264 260 259 259 258 251 251 253 255 254 256 264 265 249 243 252 246 250 253 254 255 253 251 251
289 287 287 285 284 281 278 278 277 277 275 277 277 279 282 278 275 268 259 260 259 261 261 259 256 254 254 253 258 260 266 265 250 247 248 251 245 254 255 255 251 253 244
286 285 282 284 283 284 284 278 277 276 276 276 278 282 283 276 249 256 262 268 271 262 260 259 258 256 254 253 258 262 259 266 263 256 257 261 254 248 249 252 251 233 254
280 282 286 284 283 277 266 269 268 270 277 277 279 280 277 273 270 241 238 243 245 253 254 255 258 257 254 252 253 258 257 261 265 263 262 259 249 247 245 247 253 251 252
287 284 281 281 280 278 273 271 266 274 275 274 275 279 279 275 273 267 259 256 255 248 246 253 250 256 256 252 251 254 255 260 266 272 271 251 244 243 245 245 248 249 250
285 283 280 281 280 281 280 279 281 270 270 274 277 278 279 281 276 268 260 253 250 251 247 243 250 250 251 251 250 248 252 255 264 268 253 255 257 244 242 241 246 253 253
292 291 284 283 282 283 283 279 275 273 273 271 276 278 275 277 277 271 260 253 249 251 253 253 252 255 253 252 249 247 251 256 257 258 255 252 260 265 252 252 252 254 255
302 301 293 294 292 290 284 282 278 275 277 278 276 274 277 279 277 267 259 254 254 252 255 255 254 254 255 252 247 246 247 250 251 256 254 255 253 250 252 258 259 261 258
313 301 293 290 288 288 287 279 277 276 276 277 274 271 274 279 278 270 262 257 256 255 260 257 254 253 254 253 250 243 246 245 248 251 253 253 257 260 256 258 262 264 262
316 317 307 292 284 285 283 280 279 276 273 272 269 271 274 274 266 265 258 255 256 257 261 254 252 253 251 249 250 249 243 244 246 249 252 254 255 256 268 263 257 257 257
320 317 310 295 284 282 279 280 271 270 271 268 267 273 273 270 271 268 260 255 254 253 239 252 253 246 248 246 249 256 247 244 244 245 249 251 255 259 257 260 252 247 254
326 322 315 300 284 283 286 278 267 262 261 262 269 274 273 271 270 266 258 255 250 244 247 242 230 247 242 240 243 249 249 246 244 244 246 248 247 248 250 253 250 247 248
320 318 310 300 290 285 285 275 263 256 252 260 276 269 273 266 264 259 253 249 249 250 246 245 240 239 244 238 241 242 235 250 240 242 246 247 249 251 252 251 248 246 249
326 319 313 299 289 284 282 269 259 245 246 263 271 271 264 259 279 254 255 257 254 252 242 241 249 251 239 231 235 238 236 240 239 247 251 251 251 251 249 247 245 247 247
334 331 324 318 296 283 276 256 247 246 251 257 264 263 266 265 268 243 251 253 253 237 236 228 246 236 232 231 233 239 242 243 248 250 252 248 248 249 245 242 244 247 246
Height
3192 3194 3194 3193 3193 3192 3192 3191 3191 3189 3187 3186 3185 3184 3184 3185 3184 3185 3185 3184 3185 3187 3187 3186 3189 3190 3191 3194 3194 3193 3195 3196 3198 3200 3202 3204 3202 3203 3203 3202 3203 3203 3203
3189 3191 3191 3190 3189 3188 3187 3186 3185 3183 3182 3181 3180 3179 3178 3178 3179 3179 3180 3180 3180 3181 3182 3182 3183 3185 3186 3188 3189 3191 3192 3192 3192 3194 3196 3197 3196 3196 3198 3198 3199 3200 3202
3188 3188 3188 3187 3185 3183 3181 3179 3177 3176 3175 3174 3173 3172 3171 3171 3172 3173 3173 3173 3173 3173 3174 3176 3176 3174 3177 3180 3182 3184 3186 3187 3188 3189 3190 3191 3192 3191 3191 3191 3193 3195 3196
3184 3183 3182 3181 3180 3178 3175 3172 3170 3168 3167 3166 3164 3163 3163 3163 3163 3164 3165 3165 3165 3167 3167 3167 3168 3169 3169 3172 3175 3176 3178 3180 3181 3182 3183 3186 3186 3187 3186 3186 3186 3188 3189
3177 3175 3174 3172 3170 3168 3165 3163 3161 3159 3157 3155 3153 3153 3153 3153 3155 3156 3156 3157 3158 3157 3158 3160 3161 3163 3165 3165 3166 3167 3170 3171 3173 3173 3175 3178 3180 3181 3183 3182 3181 3182 3183
3169 3167 3164 3161 3160 3158 3156 3152 3149 3147 3146 3145 3143 3141 3141 3143 3144 3147 3145 3147 3147 3147 3147 3149 3151 3153 3155 3158 3159 3159 3161 3163 3165 3167 3168 3169 3171 3173 3175 3178 3176 3175 3176
3162 3160 3157 3153 3150 3148 3146 3144 3141 3138 3136 3135 3134 3133 3132 3132 3135 3137 3136 3135 3136 3138 3138 3139 3141 3143 3145 3147 3150 3151 3151 3153 3155 3159 3160 3163 3165 3166 3168 3168 3170 3170 3170
3153 3151 3148 3145 3142 3140 3137 3135 3133 3130 3127 3125 3124 3124 3124 3124 3124 3127 3127 3125 3125 3126 3127 3128 3130 3133 3135 3136 3139 3140 3142 3144 3146 3148 3150 3154 3156 3158 3158 3161 3162 3161 3162
3142 3139 3136 3135 3133 3130 3128 3126 3124 3121 3119 3117 3115 3113 3113 3114 3115 3116 3117 3115 3115 3116 3117 3118 3119 3120 3123 3125 3125 3128 3131 3133 3136 3137 3139 3142 3145 3147 3150 3151 3151 3153 3154
3131 3127 3123 3123 3120 3118 3117 3115 3113 3111 3108 3107 3105 3104 3103 3103 3105 3106 3107 3106 3104 3106 3107 3108 3108 3109 3111 3113 3115 3117 3118 3122 3125 3126 3128 3130 3134 3137 3139 3140 3143 3144 3146
3118 3115 3112 3111 3108 3106 3103 3102 3100 3099 3097 3095 3093 3092 3090 3091 3093 3094 3094 3095 3096 3096 3095 3097 3098 3098 3100 3101 3103 3104 3108 3112 3113 3114 3114 3118 3123 3127 3129 3131 3133 3135 3138
3105 3102 3100 3098 3096 3094 3091 3089 3088 3086 3084 3082 3082 3080 3078 3077 3080 3083 3083 3083 3085 3085 3085 3088 3089 3087 3089 3091 3092 3096 3099 3098 3098 3098 3091 3106 3113 3117 3121 3122 3123 3126 3130
3093 3090 3088 3087 3084 3082 3078 3077 3075 3074 3072 3070 3069 3068 3067 3067 3069 3070 3071 3072 3074 3073 3074 3076 3077 3077 3079 3081 3082 3085 3087 3088 3090 3091 3094 3099 3104 3108 3113 3113 3115 3116 3120
3080 3077 3074 3073 3071 3070 3068 3065 3063 3062 3061 3059 3058 3057 3056 3055 3058 3063 3064 3063 3061 3062 3062 3062 3065 3066 3067 3070 3072 3075 3077 3079 3081 3083 3087 3091 3094 3098 3102 3106 3106 3102 3111
3068 3066 3063 3060 3058 3057 3057 3055 3053 3052 3050 3048 3047 3046 3045 3045 3047 3047 3049 3050 3050 3050 3051 3052 3054 3054 3056 3059 3062 3065 3068 3070 3072 3076 3077 3078 3082 3087 3092 3096 3099 3100 3103
3057 3055 3053 3050 3048 3046 3044 3043 3042 3040 3039 3037 3037 3035 3035 3034 3036 3036 3038 3038 3038 3039 3039 3041 3044 3045 3047 3049 3052 3055 3058 3060 3063 3064 3065 3066 3072 3077 3082 3086 3089 3092 3094
3047 3044 3042 3040 3037 3035 3033 3030 3027 3028 3026 3025 3024 3024 3023 3023 3024 3024 3023 3024 3023 3023 3024 3028 3030 3033 3037 3039 3042 3046 3048 3052 3055 3055 3059 3062 3063 3068 3071 3075 3079 3082 3084
3037 3034 3031 3028 3026 3023 3021 3019 3017 3014 3013 3013 3013 3011 3011 3011 3011 3012 3011 3008 3009 3011 3013 3016 3019 3023 3027 3029 3032 3034 3038 3042 3045 3048 3050 3053 3056 3058 3062 3065 3069 3073 3076
3029 3025 3020 3018 3015 3012 3009 3006 3005 3003 3000 3000 3000 3000 3001 3000 2998 2999 2998 2997 2998 3000 3003 3004 3007 3012 3014 3018 3021 3024 3027 3032 3036 3038 3041 3044 3048 3051 3054 3058 3061 3062 3065
3021 3015 3010 3005 3003 3000 2997 2994 2992 2990 2989 2988 2988 2990 2990 2988 2987 2987 2987 2987 2987 2988 2990 2992 2996 3001 3005 3007 3010 3015 3016 3021 3025 3028 3032 3035 3038 3040 3044 3046 3049 3052 3054
3011 3004 2997 2991 2988 2986 2984 2982 2980 2978 2978 2978 2978 2979 2979 2976 2975 2976 2977 2977 2979 2980 2981 2983 2986 2990 2994 2997 2999 3001 3006 3010 3014 3017 3021 3025 3028 3031 3032 3035 3037 3040 3042
2999 2991 2984 2977 2974 2972 2971 2969 2968 2967 2967 2967 2968 2968 2968 2966 2966 2966 2967 2968 2969 2971 2975 2976 2979 2982 2985 2988 2990 2993 2995 2999 3003 3007 3011 3015 3018 3021 3022 3024 3027 3029 3031
2985 2977 2971 2964 2960 2959 2957 2956 2956 2957 2957 2959 2959 2960 2959 2958 2957 2957 2957 2958 2960 2963 2965 2968 2970 2974 2977 2980 2984 2984 2988 2990 2993 2997 3000 3003 3007 3009 3011 3013 3016 3019 3021
2975 2966 2958 2953 2950 2948 2946 2944 2946 2949 2950 2951 2952 2951 2951 2950 2948 2949 2950 2951 2952 2954 2956 2959 2962 2965 2968 2971 2975 2977 2980 2981 2983 2987 2989 2992 2995 2997 2999 3001 3005 3007 3010
2964 2954 2945 2940 2938 2937 2936 2936 2937 2940 2943 2944 2944 2943 2943 2941 2935 2942 2943 2945 2945 2947 2949 2951 2955 2957 2959 2962 2964 2968 2969 2973 2975 2978 2979 2980 2983 2985 2987 2990 2993 2996 2999
2955 2945 2937 2931 2927 2926 2927 2928 2930 2934 2936 2937 2936 2937 2937 2936 2936 2937 2937 2937 2939 2941 2944 2944 2947 2948 2952 2955 2956 2959 2961 2963 2965 2967 2968 2970 2972 2974 2977 2981 2984 2987 2991